Regional Weather Roundup
Issued by NWS

Home | Current Version | Previous Version | Graphics & Text | Print | Product List | Glossary On
Versions: 1 2 3 4 5 6 7 8 9 10 11 12 13 14 15 16 17 18 19 20 21 22 23 24 25 26 27 28 29 30 31 32 33 34 35 36 37 38 39 40 41 42 43 44 45 46 47 48 49 50
000
ASUS45 KBOI 271910
RWRID
WEATHER ROUNDUP FOR IDAHO
NATIONAL WEATHER SERVICE BOISE ID
100 PM MDT WED AUG 27 2014

NOTE: "FAIR" INDICATES FEW OR NO CLOUDS BELOW 12000 FEET
WITH NO SIGNIFICANT WEATHER AND/OR OBSTRUCTIONS TO VISIBILITY

IDZ012-014-272000-
SOUTHWEST IDAHO


CITY           SKY/WX    TMP DP  RH WIND       PRES   REMARKS
BOISE          SUNNY     82  44  26 W7        30.13F
CALDWELL       SUNNY     81  46  30 CALM      30.13F
MOUNTAIN HOME  SUNNY     82  46  28 VRB3      30.14F
$$

IDZ016-017-272000-
SOUTHCENTRAL IDAHO


CITY           SKY/WX    TMP DP  RH WIND       PRES   REMARKS
BURLEY         SUNNY     75  51  43 SW5       30.19F
JEROME         SUNNY     74  47  38 SW6       30.20F
TWIN FALLS     SUNNY     78  49  35 N3        30.20F
$$

IDZ019>023-272000-
SOUTHEAST IDAHO


CITY           SKY/WX    TMP DP  RH WIND       PRES   REMARKS
IDAHO FALLS    MOSUNNY   74  48  39 SW9       30.21F
POCATELLO      MOSUNNY   77  48  35 W13G20    30.21F
REXBURG        SUNNY     72  51  47 S9        30.21F
$$

IDZ006-010-011-018-031-032-272000-
CENTRAL IDAHO MOUNTAINS


CITY           SKY/WX    TMP DP  RH WIND       PRES   REMARKS
MCCALL         SUNNY     72  39  30 S5        30.22F
HAILEY         MOSUNNY   72  48  43 E9        30.25F
STANLEY          N/A     70  40  33 VRB6      30.30F
SALMON         SUNNY     70  46  43 NW3       30.16F
CHALLIS        SUNNY     72  45  37 CALM      30.21F
$$

IDZ002-004-006-007-026-272000-
NORTHERN IDAHO


CITY           SKY/WX    TMP DP  RH WIND       PRES   REMARKS
LEWISTON       SUNNY     82  47  29 NW7       30.03F
LOWELL           N/A     76  51  41 N5        30.06F
COEUR D`ALENE  SUNNY     79  46  31 SE3       30.05F
MULLAN PASS    SUNNY     66  40  38 VRB6      30.25F
$$



USA.gov is the U.S. government's official web portal to all federal, state and local government web resources and services.